User: anonymous   Login
Location: Bazugues
(43.4465°N, 0.3432°E)
Time: 12:20:55
(UTC+00:00)
Language:

BREEZE-M DEB (TANK) - Orbit

View from above orbital plane
View from above orbital plane
View from above satellite
View from above satellite

Ground track
Ground track

The orbit is defined by the following mean orbital elements,

1 36794U          26066.09654363 +.00000000 +00000-0 +13719-2 0 00001
2 36794  49.5037 294.6546 5434447  65.9793 340.6851  4.93713027    08
Epoch (UTC): 07 March 2026 02:19:01
Eccentricity: 0.5434447
inclination: 49.5037°
perigee height: 273 km
apogee height: 16108 km
right ascension of ascending node: 294.6546°
argument of perigee: 65.9793°
revolutions per day: 4.93713027
mean anomaly at epoch: 340.6851°

The dashed part of the orbit path shows where the satellite is in the earth's shadow,  

DLR